TimeAKDT,TemperatureF,Dew PointF,Humidity,Sea Level PressureIn,VisibilityMPH,Wind Direction,Wind SpeedMPH,Gust SpeedMPH,PrecipitationIn,Events,Conditions,WindDirDegrees,DateUTC
12:16 AM,42.8,39.2,87,29.76,2.0,NE,11.5,-,0.02,,Overcast,40,2013-08-07 08:16:00
12:36 AM,41.0,39.2,93,29.75,2.0,NE,11.5,-,0.04,,Overcast,40,2013-08-07 08:36:00
12:56 AM,41.0,39.2,93,29.74,2.5,NNE,15.0,-,0.06,,Overcast,30,2013-08-07 08:56:00
1:16 AM,42.8,39.2,87,29.74,4.0,NE,15.0,-,0.01,,Overcast,40,2013-08-07 09:16:00
1:36 AM,41.0,39.2,93,29.73,3.0,NE,16.1,-,0.02,,Overcast,40,2013-08-07 09:36:00
1:56 AM,42.8,39.2,87,29.73,4.0,NE,18.4,-,0.03,,Overcast,40,2013-08-07 09:56:00
2:16 AM,42.8,39.2,87,29.72,4.0,NE,18.4,-,0.01,,Overcast,40,2013-08-07 10:16:00
2:36 AM,42.8,39.2,87,29.72,3.0,NE,17.3,-,0.01,,Overcast,40,2013-08-07 10:36:00
2:56 AM,42.8,39.2,87,29.72,4.0,NE,18.4,-,0.02,,Overcast,40,2013-08-07 10:56:00
3:16 AM,42.8,39.2,87,29.71,3.0,NE,18.4,-,N/A,,Overcast,40,2013-08-07 11:16:00
3:36 AM,42.8,39.2,87,29.71,3.0,NE,15.0,-,0.01,,Overcast,40,2013-08-07 11:36:00
3:56 AM,42.8,39.2,87,29.70,3.0,NE,16.1,-,0.01,,Overcast,40,2013-08-07 11:56:00
4:16 AM,42.8,41.0,93,29.70,3.0,NE,16.1,-,0.01,,Overcast,40,2013-08-07 12:16:00
4:36 AM,42.8,41.0,93,29.69,4.0,NE,18.4,-,0.02,,Overcast,40,2013-08-07 12:36:00
4:56 AM,42.8,41.0,93,29.68,4.0,NE,17.3,-,0.02,,Overcast,40,2013-08-07 12:56:00
5:16 AM,42.8,39.2,87,29.68,2.0,NE,17.3,-,N/A,,Overcast,40,2013-08-07 13:16:00
5:36 AM,42.8,39.2,87,29.68,3.0,NE,17.3,-,0.01,,Overcast,40,2013-08-07 13:36:00
5:56 AM,42.8,39.2,87,29.67,3.0,NE,17.3,-,0.01,,Overcast,40,2013-08-07 13:56:00
6:16 AM,42.8,39.2,87,29.67,2.0,NE,19.6,-,N/A,,Overcast,40,2013-08-07 14:16:00
6:36 AM,42.8,39.2,87,29.66,2.0,NE,19.6,-,0.01,,Overcast,40,2013-08-07 14:36:00
6:56 AM,42.8,41.0,93,29.65,1.5,NE,20.7,-,0.01,,Overcast,40,2013-08-07 14:56:00
7:16 AM,42.8,41.0,93,29.65,0.5,NE,19.6,-,N/A,,Overcast,40,2013-08-07 15:16:00
7:36 AM,42.8,41.0,93,29.65,0.2,NE,16.1,24.2,N/A,,Overcast,40,2013-08-07 15:36:00
7:56 AM,42.8,39.2,87,29.65,0.5,NE,18.4,-,N/A,,Overcast,40,2013-08-07 15:56:00
8:16 AM,42.8,41.0,93,29.64,0.5,NNE,18.4,-,N/A,,Overcast,30,2013-08-07 16:16:00
8:36 AM,42.8,41.0,93,29.63,1.5,NNE,18.4,-,N/A,,Overcast,30,2013-08-07 16:36:00
8:56 AM,42.8,41.0,93,29.63,2.5,NE,16.1,21.9,0.01,,Overcast,40,2013-08-07 16:56:00
9:16 AM,42.8,41.0,93,29.62,2.0,NE,19.6,-,0.03,,Overcast,40,2013-08-07 17:16:00
9:36 AM,42.8,41.0,93,29.61,3.0,NE,18.4,-,0.04,,Overcast,40,2013-08-07 17:36:00
9:56 AM,42.8,41.0,93,29.61,2.5,NE,18.4,-,0.05,,Overcast,50,2013-08-07 17:56:00
10:16 AM,42.8,41.0,93,29.60,3.0,NE,15.0,-,N/A,,Overcast,50,2013-08-07 18:16:00
10:36 AM,42.8,41.0,93,29.60,3.0,NE,15.0,-,0.02,,Overcast,40,2013-08-07 18:36:00
10:56 AM,42.8,41.0,93,29.60,2.5,NE,16.1,-,0.03,,Overcast,50,2013-08-07 18:56:00
11:16 AM,42.8,41.0,93,29.59,2.5,NE,18.4,-,0.02,,Overcast,50,2013-08-07 19:16:00
11:36 AM,42.8,41.0,93,29.59,3.0,NE,17.3,-,0.02,,Overcast,40,2013-08-07 19:36:00
11:56 AM,42.8,41.0,93,29.59,4.0,NE,19.6,-,0.02,,Overcast,40,2013-08-07 19:56:00
12:16 PM,44.6,42.8,93,29.58,4.0,NE,19.6,-,N/A,,Overcast,40,2013-08-07 20:16:00
12:36 PM,44.6,42.8,93,29.58,4.0,NE,19.6,-,N/A,,Overcast,50,2013-08-07 20:36:00
12:56 PM,44.6,42.8,93,29.58,5.0,NE,21.9,-,N/A,,Overcast,50,2013-08-07 20:56:00
1:16 PM,44.6,42.8,93,29.57,5.0,NE,23.0,-,N/A,,Overcast,40,2013-08-07 21:16:00
1:36 PM,44.6,42.8,93,29.57,4.0,NE,20.7,-,N/A,,Mostly Cloudy,40,2013-08-07 21:36:00
1:56 PM,44.6,42.8,93,29.57,5.0,NE,21.9,26.5,N/A,,Overcast,50,2013-08-07 21:56:00
2:16 PM,44.6,42.8,93,29.56,7.0,NE,24.2,28.8,N/A,,Overcast,50,2013-08-07 22:16:00
2:36 PM,44.6,42.8,93,29.56,5.0,NE,20.7,-,N/A,,Overcast,50,2013-08-07 22:36:00
2:56 PM,44.6,42.8,93,29.56,4.0,NE,20.7,-,N/A,,Overcast,50,2013-08-07 22:56:00
3:16 PM,44.6,42.8,93,29.56,6.0,NE,21.9,-,0.01,,Overcast,50,2013-08-07 23:16:00
3:36 PM,44.6,42.8,93,29.56,6.0,NE,20.7,-,0.01,,Overcast,50,2013-08-07 23:36:00
3:56 PM,46.4,42.8,87,29.56,5.0,ENE,23.0,-,0.01,,Overcast,60,2013-08-07 23:56:00
4:16 PM,46.4,42.8,87,29.55,6.0,NE,23.0,-,N/A,,Mostly Cloudy,50,2013-08-08 00:16:00
4:36 PM,44.6,42.8,93,29.55,7.0,ENE,25.3,-,N/A,,Mostly Cloudy,60,2013-08-08 00:36:00
4:56 PM,46.4,42.8,87,29.55,8.0,ENE,25.3,-,N/A,,Mostly Cloudy,60,2013-08-08 00:56:00
5:16 PM,46.4,44.6,93,29.55,9.0,ENE,25.3,-,N/A,,Overcast,60,2013-08-08 01:16:00
5:36 PM,46.4,42.8,87,29.55,8.0,ENE,24.2,-,N/A,,Overcast,60,2013-08-08 01:36:00
5:56 PM,46.4,44.6,93,29.55,9.0,ENE,25.3,-,N/A,,Overcast,60,2013-08-08 01:56:00
6:16 PM,46.4,42.8,87,29.56,9.0,NE,21.9,-,N/A,,Overcast,50,2013-08-08 02:16:00
6:36 PM,46.4,42.8,87,29.56,9.0,ENE,21.9,-,N/A,,Mostly Cloudy,60,2013-08-08 02:36:00
6:56 PM,46.4,42.8,87,29.56,8.0,ENE,24.2,-,N/A,,Scattered Clouds,60,2013-08-08 02:56:00
7:16 PM,46.4,42.8,87,29.56,8.0,ENE,25.3,-,N/A,,Mostly Cloudy,60,2013-08-08 03:16:00
7:36 PM,46.4,44.6,93,29.56,6.0,ENE,24.2,-,N/A,,Overcast,60,2013-08-08 03:36:00
7:56 PM,44.6,42.8,93,29.57,6.0,NE,19.6,-,0.01,,Overcast,50,2013-08-08 03:56:00
8:16 PM,44.6,42.8,93,29.57,8.0,NE,18.4,-,N/A,,Overcast,50,2013-08-08 04:16:00
8:36 PM,44.6,42.8,93,29.57,8.0,NE,21.9,26.5,N/A,,Overcast,50,2013-08-08 04:36:00
8:56 PM,44.6,42.8,93,29.57,8.0,NE,20.7,-,N/A,,Overcast,50,2013-08-08 04:56:00
9:16 PM,44.6,42.8,93,29.58,7.0,NE,21.9,-,N/A,,Overcast,50,2013-08-08 05:16:00
9:36 PM,44.6,42.8,93,29.57,5.0,NE,20.7,-,0.01,,Overcast,50,2013-08-08 05:36:00
9:56 PM,44.6,42.8,93,29.57,6.0,NE,17.3,-,0.02,,Overcast,50,2013-08-08 05:56:00
10:16 PM,44.6,42.8,93,29.58,4.0,NE,18.4,-,N/A,,Overcast,40,2013-08-08 06:16:00
10:36 PM,44.6,42.8,93,29.57,4.0,NE,17.3,-,0.02,,Overcast,40,2013-08-08 06:36:00
10:56 PM,44.6,42.8,93,29.57,5.0,NE,18.4,-,0.02,,Overcast,40,2013-08-08 06:56:00
11:16 PM,44.6,42.8,93,29.57,5.0,NE,19.6,-,N/A,,Overcast,40,2013-08-08 07:16:00
11:36 PM,44.6,42.8,93,29.57,5.0,NE,18.4,-,N/A,,Overcast,40,2013-08-08 07:36:00
11:56 PM,44.6,42.8,93,29.57,5.0,NE,18.4,-,N/A,,Overcast,40,2013-08-08 07:56:00